When you browse on this site, cookies collect data to enhance your experience and personalize the content and advertising you see.
Visit our Privacy Policy to learn more. By continuing to use the site, you agree to this use of cookies and data.
  • In Lithuania
  • List of Countries
  • For 7 days
  • Water Temperature
  • Satellite Maps
  • Weather Map
  • Weather Widgets
  • user-avatar
    Login

    Hourly Weather Kulikovy Kopani

    Today, 11 December, Tuesday

    Time Temperature Precipitation Wind Pressure Humidity
    00:00 +3°C° 0 mm 4 mps 738 mmHg 91%
    01:00 +3°C° 0 mm 4 mps 738 mmHg 91%
    02:00 +3°C° 0 mm 4 mps 738 mmHg 92%
    03:00 +3°C° 0 mm 4 mps 738 mmHg 93%
    04:00 +3°C° 0 mm 4 mps 738 mmHg 93%
    05:00 +1°C° 0 mm 4 mps 738 mmHg 93%
    06:00 +1°C° 0 mm 4 mps 738 mmHg 93%
    07:00 +3°C° 0 mm 4 mps 737 mmHg 93%
    08:00 +3°C° 0 mm 4 mps 737 mmHg 93%
    09:00 +3°C° 0 mm 4 mps 737 mmHg 92%
    10:00 +3°C° 0 mm 5 mps 736 mmHg 91%
    11:00 +5°C° 0 mm 5 mps 736 mmHg 89%
    12:00 +5°C° 0 mm 5 mps 735 mmHg 87%
    13:00 +6°C° 0 mm 5 mps 735 mmHg 87%
    14:00 +6°C° 0 mm 5 mps 734 mmHg 86%
    15:00 +6°C° 0 mm 5 mps 733 mmHg 86%
    16:00 +6°C° 0 mm 5 mps 733 mmHg 89%
    17:00 +6°C° 0 mm 4 mps 733 mmHg 91%
    18:00 +6°C° 0 mm 4 mps 733 mmHg 93%
    19:00 +5°C° 0 mm 3 mps 733 mmHg 94%
    20:00 +5°C° 0 mm 3 mps 733 mmHg 95%
    21:00 +6°C° 0 mm 2 mps 733 mmHg 95%
    22:00 +6°C° 0.2 mm 2 mps 734 mmHg 95%
    23:00 +5°C° 0.2 mm 3 mps 735 mmHg 95%

    Tomorrow, 12 December, Wednesday

    Time Temperature Precipitation Wind Pressure Humidity
    00:00 +5°C° 0.2 mm 3 mps 735 mmHg 95%
    01:00 +5°C° 0.1 mm 3 mps 736 mmHg 95%
    02:00 +5°C° 0.1 mm 2 mps 736 mmHg 95%
    03:00 +5°C° 0.1 mm 2 mps 736 mmHg 95%
    04:00 +5°C° 0 mm 2 mps 737 mmHg 95%
    05:00 +5°C° 0 mm 1 mps 737 mmHg 95%
    06:00 +5°C° 0 mm 1 mps 737 mmHg 94%
    07:00 +5°C° 0 mm 1 mps 738 mmHg 93%
    08:00 +6°C° 0 mm 1 mps 738 mmHg 93%
    09:00 +6°C° 0 mm 1 mps 739 mmHg 92%
    10:00 +7°C° 0 mm 1 mps 739 mmHg 86%
    11:00 +8°C° 0 mm 1 mps 739 mmHg 81%
    12:00 +8°C° 0 mm 2 mps 739 mmHg 75%
    13:00 +9°C° 0 mm 1 mps 739 mmHg 74%
    14:00 +9°C° 0 mm 1 mps 738 mmHg 73%
    15:00 +9°C° 0 mm 1 mps 738 mmHg 73%
    16:00 +8°C° 0 mm 1 mps 738 mmHg 76%
    17:00 +8°C° 0 mm 1 mps 738 mmHg 78%
    18:00 +6°C° 0 mm 2 mps 739 mmHg 81%
    19:00 +6°C° 0.2 mm 2 mps 739 mmHg 82%
    20:00 +6°C° 0.2 mm 2 mps 739 mmHg 84%
    21:00 +6°C° 0.2 mm 2 mps 739 mmHg 85%
    22:00 +5°C° 0.5 mm 2 mps 739 mmHg 86%
    23:00 +5°C° 0.5 mm 2 mps 739 mmHg 87%

    Day after tomorrow, 13 December, Thursday

    Time Temperature Precipitation Wind Pressure Humidity
    00:00 +5°C° 0.5 mm 2 mps 739 mmHg 88%
    01:00 +5°C° 0.4 mm 2 mps 739 mmHg 88%
    02:00 +5°C° 0.4 mm 2 mps 739 mmHg 89%
    03:00 +5°C° 0.4 mm 2 mps 739 mmHg 89%
    04:00 +5°C° 0.2 mm 2 mps 739 mmHg 90%
    05:00 +4°C° 0.2 mm 2 mps 740 mmHg 90%
    06:00 +4°C° 0.2 mm 2 mps 740 mmHg 91%
    07:00 +5°C° 0.4 mm 1 mps 740 mmHg 91%
    08:00 +5°C° 0.4 mm 1 mps 741 mmHg 91%
    09:00 +4°C° 0.4 mm 0 mps 741 mmHg 91%
    10:00 +5°C° 0.4 mm 1 mps 741 mmHg 90%
    11:00 +6°C° 0.4 mm 1 mps 742 mmHg 88%
    12:00 +6°C° 0.4 mm 1 mps 742 mmHg 87%
    13:00 +6°C° 0.4 mm 1 mps 742 mmHg 87%
    14:00 +5°C° 0.4 mm 2 mps 743 mmHg 88%
    15:00 +5°C° 0.4 mm 2 mps 743 mmHg 88%
    16:00 +3°C° 0.2 mm 3 mps 744 mmHg 88%
    17:00 +3°C° 0.2 mm 3 mps 744 mmHg 87%
    18:00 +1°C° 0.2 mm 4 mps 745 mmHg 87%
    19:00 +1°C° 0 mm 4 mps 745 mmHg 86%
    20:00 +2°C° 0 mm 3 mps 745 mmHg 86%
    21:00 +1°C° 0 mm 3 mps 746 mmHg 85%
    22:00 +1°C° 0 mm 3 mps 746 mmHg 86%
    23:00 +2°C° 0 mm 2 mps 746 mmHg 87%

    14 December, Friday

    Time Temperature Precipitation Wind Pressure Humidity
    00:00 +2°C° 0 mm 2 mps 746 mmHg 88%
    01:00 +1°C° 0 mm 2 mps 746 mmHg 88%
    02:00 +1°C° 0 mm 2 mps 747 mmHg 88%
    03:00 +1°C° 0 mm 2 mps 747 mmHg 89%
    04:00 +2°C° 0 mm 1 mps 747 mmHg 89%
    05:00 +1°C° 0 mm 1 mps 747 mmHg 89%
    06:00 0°C° 0 mm 0 mps 747 mmHg 89%
    07:00 +1°C° 0 mm 1 mps 747 mmHg 86%
    08:00 +2°C° 0 mm 1 mps 747 mmHg 83%
    09:00 +2°C° 0 mm 1 mps 747 mmHg 80%
    10:00 +3°C° 0 mm 1 mps 747 mmHg 75%
    11:00 +3°C° 0 mm 2 mps 747 mmHg 70%
    12:00 +4°C° 0 mm 2 mps 746 mmHg 64%
    13:00 +4°C° 0 mm 2 mps 746 mmHg 64%
    14:00 +4°C° 0 mm 2 mps 746 mmHg 63%
    15:00 +4°C° 0 mm 2 mps 746 mmHg 62%
    16:00 +3°C° 0 mm 2 mps 746 mmHg 66%
    17:00 +3°C° 0 mm 2 mps 746 mmHg 69%
    18:00 +2°C° 0 mm 2 mps 746 mmHg 72%
    19:00 +2°C° 0 mm 2 mps 747 mmHg 72%
    20:00 +2°C° 0 mm 2 mps 747 mmHg 73%
    21:00 +2°C° 0 mm 2 mps 747 mmHg 73%
    22:00 +1°C° 0 mm 2 mps 747 mmHg 74%
    23:00 +1°C° 0 mm 2 mps 747 mmHg 75%

    15 December, Saturday

    Time Temperature Precipitation Wind Pressure Humidity
    00:00 +1°C° 0 mm 2 mps 747 mmHg 76%
    01:00 +1°C° 0 mm 2 mps 747 mmHg 76%
    02:00 -1°C° 0 mm 2 mps 747 mmHg 76%
    03:00 -1°C° 0 mm 2 mps 747 mmHg 76%
    04:00 -1°C° 0 mm 2 mps 747 mmHg 76%
    05:00 -1°C° 0 mm 2 mps 747 mmHg 76%
    06:00 -1°C° 0 mm 2 mps 748 mmHg 76%
    07:00 -1°C° 0 mm 2 mps 748 mmHg 75%
    08:00 -1°C° 0 mm 2 mps 748 mmHg 74%
    09:00 0°C° 0 mm 3 mps 748 mmHg 73%
    10:00 +1°C° 0 mm 3 mps 748 mmHg 69%
    11:00 +2°C° 0 mm 3 mps 748 mmHg 65%
    12:00 +3°C° 0 mm 3 mps 748 mmHg 61%
    13:00 +4°C° 0 mm 2 mps 748 mmHg 61%
    14:00 +4°C° 0 mm 2 mps 748 mmHg 61%
    15:00 +4°C° 0 mm 2 mps 748 mmHg 61%
    16:00 +4°C° 0.1 mm 2 mps 749 mmHg 63%
    17:00 +3°C° 0.1 mm 2 mps 749 mmHg 66%
    18:00 +3°C° 0.1 mm 2 mps 749 mmHg 69%
    19:00 +2°C° 0.1 mm 2 mps 749 mmHg 71%
    20:00 +2°C° 0.1 mm 2 mps 749 mmHg 72%
    21:00 +1°C° 0.1 mm 3 mps 750 mmHg 74%
    22:00 +2°C° 0.1 mm 2 mps 750 mmHg 75%
    23:00 +2°C° 0.1 mm 2 mps 750 mmHg 77%

    16 December, Sunday

    Time Temperature Precipitation Wind Pressure Humidity
    00:00 +2°C° 0.1 mm 2 mps 750 mmHg 79%
    01:00 +2°C° 0.3 mm 2 mps 750 mmHg 81%
    02:00 +2°C° 0.3 mm 2 mps 750 mmHg 83%
    03:00 +2°C° 0.3 mm 2 mps 751 mmHg 85%
    04:00 +2°C° 0.5 mm 2 mps 751 mmHg 88%
    05:00 +1°C° 0.5 mm 2 mps 751 mmHg 90%
    06:00 +1°C° 0.5 mm 2 mps 751 mmHg 93%
    07:00 +1°C° 0.1 mm 2 mps 751 mmHg 93%
    08:00 +1°C° 0.1 mm 2 mps 752 mmHg 93%
    09:00 0°C° 0.1 mm 3 mps 752 mmHg 92%
    10:00 +1°C° 0 mm 3 mps 752 mmHg 88%
    11:00 +1°C° 0 mm 3 mps 752 mmHg 84%
    12:00 0°C° 0 mm 4 mps 752 mmHg 79%
    13:00 +1°C° 0 mm 3 mps 752 mmHg 79%
    14:00 +1°C° 0 mm 3 mps 752 mmHg 78%
    15:00 +1°C° 0 mm 3 mps 752 mmHg 77%
    16:00 0°C° 0 mm 3 mps 752 mmHg 79%
    17:00 0°C° 0 mm 3 mps 752 mmHg 81%
    18:00 +1°C° 0 mm 2 mps 753 mmHg 83%
    19:00 -1°C° 0 mm 2 mps 753 mmHg 84%
    20:00 -1°C° 0 mm 2 mps 753 mmHg 86%
    21:00 -2°C° 0 mm 2 mps 753 mmHg 87%
    22:00 -2°C° 0 mm 2 mps 752 mmHg 88%
    23:00 -2°C° 0 mm 2 mps 752 mmHg 89%
    Show more